TimeEDT,TemperatureF,Dew PointF,Humidity,Sea Level PressureIn,VisibilityMPH,Wind Direction,Wind SpeedMPH,Gust SpeedMPH,PrecipitationIn,Events,Conditions,WindDirDegrees,DateUTC
12:25 AM,62.6,59.0,88,30.04,10.0,Calm,Calm,-,N/A,,Overcast,0,2013-08-30 04:25:00
12:52 AM,62.1,59.0,90,30.04,10.0,Calm,Calm,-,N/A,,Overcast,0,2013-08-30 04:52:00
1:52 AM,62.1,59.0,90,30.02,10.0,Calm,Calm,-,N/A,,Overcast,0,2013-08-30 05:52:00
2:52 AM,62.1,59.0,90,30.01,10.0,SSW,3.5,-,N/A,,Overcast,200,2013-08-30 06:52:00
3:52 AM,62.1,59.0,90,29.99,10.0,Calm,Calm,-,N/A,,Overcast,0,2013-08-30 07:52:00
4:52 AM,62.1,59.0,90,29.99,10.0,Calm,Calm,-,N/A,,Overcast,0,2013-08-30 08:52:00
5:24 AM,62.6,59.0,88,29.99,10.0,Calm,Calm,-,N/A,,Overcast,0,2013-08-30 09:24:00
5:52 AM,62.1,59.0,90,29.99,10.0,Calm,Calm,-,N/A,,Overcast,0,2013-08-30 09:52:00
6:31 AM,62.6,59.0,88,29.99,10.0,Calm,Calm,-,N/A,,Overcast,0,2013-08-30 10:31:00
6:42 AM,62.6,59.0,88,29.99,10.0,Calm,Calm,-,N/A,,Overcast,0,2013-08-30 10:42:00
6:52 AM,62.1,59.0,90,29.99,10.0,South,3.5,-,N/A,,Overcast,170,2013-08-30 10:52:00
7:52 AM,64.0,60.1,87,29.98,10.0,Calm,Calm,-,N/A,,Overcast,0,2013-08-30 11:52:00
8:52 AM,66.0,62.1,87,29.98,10.0,South,5.8,-,N/A,,Overcast,190,2013-08-30 12:52:00
9:41 AM,69.8,62.6,78,29.97,10.0,SSE,4.6,-,N/A,,Overcast,160,2013-08-30 13:41:00
9:52 AM,69.1,63.0,81,29.97,10.0,South,4.6,-,N/A,,Overcast,190,2013-08-30 13:52:00
10:52 AM,72.0,64.0,76,29.95,10.0,Calm,Calm,-,N/A,,Overcast,0,2013-08-30 14:52:00
11:52 AM,75.0,64.0,69,29.93,10.0,SW,4.6,-,N/A,,Mostly Cloudy,230,2013-08-30 15:52:00
12:16 PM,75.2,64.4,69,29.92,10.0,Calm,Calm,-,N/A,,Scattered Clouds,0,2013-08-30 16:16:00
12:52 PM,77.0,64.9,66,29.91,10.0,South,3.5,-,N/A,,Partly Cloudy,170,2013-08-30 16:52:00
1:52 PM,79.0,64.9,62,29.89,10.0,SSW,4.6,-,N/A,,Partly Cloudy,200,2013-08-30 17:52:00
2:52 PM,82.0,64.0,54,29.86,10.0,Variable,6.9,-,N/A,,Partly Cloudy,0,2013-08-30 18:52:00
3:52 PM,82.0,64.9,56,29.86,10.0,SSE,6.9,-,N/A,,Clear,160,2013-08-30 19:52:00
4:52 PM,82.0,66.0,58,29.85,10.0,South,9.2,-,N/A,,Clear,180,2013-08-30 20:52:00
5:52 PM,80.1,66.0,62,29.84,10.0,South,9.2,-,N/A,,Clear,190,2013-08-30 21:52:00
6:52 PM,77.0,68.0,74,29.84,10.0,South,3.5,-,N/A,,Clear,170,2013-08-30 22:52:00
7:52 PM,73.0,68.0,84,29.85,10.0,SE,3.5,-,N/A,,Clear,140,2013-08-30 23:52:00
8:52 PM,70.0,66.9,90,29.85,10.0,Calm,Calm,-,N/A,,Clear,0,2013-08-31 00:52:00
9:52 PM,69.1,66.9,93,29.85,9.0,Calm,Calm,-,N/A,,Clear,0,2013-08-31 01:52:00
10:52 PM,69.1,66.9,93,29.85,8.0,Calm,Calm,-,N/A,,Clear,0,2013-08-31 02:52:00
11:52 PM,66.9,66.0,97,29.84,7.0,Calm,Calm,-,N/A,,Clear,0,2013-08-31 03:52:00